KB2SKP Weather Reports


Display with metric or nautical units.
time (UTC)temp
F
wind
direction
speed
MPH
gust
MPH
rain 1hr
in
rain 24hr
in
rain mn
in
humidity
%
barometer
mb
20260902013539 79 273 1.0 2.0 0.00 0.00 0.00 92 1011.0
20260902013035 80 258 1.0 3.0 0.00 0.00 0.00 92 1011.2
20260902012530 80 316 1.0 3.0 0.00 0.00 0.00 92 1011.3
20260902012026 79 336 0.0 4.0 0.00 0.00 0.00 93 1011.3
20260902011521 79 294 1.0 2.0 0.00 0.00 0.00 92 1011.0
20260902011021 80 223 0.0 3.0 0.00 0.00 0.00 92 1011.0
20260902010520 80 290 2.0 3.0 0.00 0.00 0.00 91 1011.0
20260902010016 80 297 3.0 4.0 0.00 0.00 0.00 92 1011.0
20260902005514 80 320 0.0 3.0 0.00 0.00 0.00 92 1010.8
20260902005010 80 240 1.0 2.0 0.00 0.00 0.00 92 1010.7
20260902004509 80 288 1.0 2.0 0.00 0.00 0.00 91 1010.7
20260902004005 80 289 0.0 3.0 0.00 0.00 0.00 92 1010.4
20260902003500 80 237 2.0 2.0 0.00 0.00 0.00 91 1010.3
20260902002955 80 275 1.0 2.0 0.00 0.00 0.00 91 1010.2
20260902002451 80 269 1.0 2.0 0.00 0.00 0.00 91 1010.2
20260902001950 80 242 0.0 2.0 0.00 0.00 0.00 91 1010.2
20260902001444 81 239 0.0 2.0 0.00 0.00 0.00 91 1010.4
20260902000940 80 269 0.0 3.0 0.00 0.00 0.00 90 1010.4
20260902000436 80 296 1.0 3.0 0.00 0.00 0.00 92 1010.3
20260901235930 80 271 1.0 2.0 0.00 0.00 0.00 91 1010.2
20260901235425 81 244 1.0 3.0 0.00 0.00 0.00 91 1010.4
20260901234921 81 246 0.0 2.0 0.00 0.00 0.00 90 1010.4
20260901234414 82 149 0.0 2.0 0.00 0.00 0.00 90 1010.3
20260901233909 82 239 1.0 2.0 0.00 0.00 0.00 89 1010.4
20260901233404 82 285 2.0 3.0 0.00 0.00 0.00 89 1010.4
20260901232900 82 263 0.0 2.0 0.00 0.00 0.00 89 1010.5
20260901232354 83 275 1.0 2.0 0.00 0.00 0.00 89 1010.6
20260901231850 83 274 2.0 2.0 0.00 0.00 0.00 88 1010.4
20260901231347 83 266 1.0 4.0 0.00 0.00 0.00 88 1010.3
20260901230843 83 280 1.0 2.0 0.00 0.00 0.00 88 1010.5
20260901230342 83 282 0.0 2.0 0.00 0.00 0.00 87 1010.6
20260901225838 83 0 0.0 0.0 0.00 0.00 0.00 87 1010.6
20260901225337 84 197 0.0 1.0 0.00 0.00 0.00 88 1010.6
20260901224832 84 242 0.0 1.0 0.00 0.00 0.00 87 1010.6
20260901224328 84 300 1.0 2.0 0.00 0.00 0.00 87 1010.6
20260901223825 84 230 0.0 1.0 0.00 0.00 0.00 86 1010.6
20260901223320 85 246 0.0 1.0 0.00 0.00 0.00 85 1010.7
20260901222815 85 195 0.0 2.0 0.00 0.00 0.00 85 1011.0
20260901222312 85 299 0.0 0.0 0.00 0.00 0.00 84 1010.9
20260901221807 85 238 0.0 1.0 0.00 0.00 0.00 83 1010.7
20260901221302 86 242 0.0 0.0 0.00 0.00 0.00 81 1010.8
20260901220801 86 269 0.0 0.0 0.00 0.00 0.00 82 1010.7
20260901220256 86 299 0.0 1.0 0.00 0.00 0.00 80 1010.9
20260901215755 86 217 0.0 0.0 0.00 0.00 0.00 82 1010.9
20260901215254 87 209 0.0 0.0 0.00 0.00 0.00 81 1011.0
20260901214753 87 252 0.0 1.0 0.00 0.00 0.00 80 1010.9
20260901214251 87 141 0.0 1.0 0.00 0.00 0.00 80 1011.1
20260901213746 88 352 0.0 1.0 0.00 0.00 0.00 79 1011.2
20260901213241 88 178 0.0 1.0 0.00 0.00 0.00 78 1011.1
20260901212741 88 291 0.0 2.0 0.00 0.00 0.00 77 1010.8
20260901212236 88 174 0.0 1.0 0.00 0.00 0.00 77 1010.9
20260901211731 88 255 0.0 1.0 0.00 0.00 0.00 78 1011.1
20260901211228 88 248 0.0 1.0 0.00 0.00 0.00 77 1011.1
20260901210723 89 240 1.0 2.0 0.00 0.00 0.00 76 1011.4
20260901210219 90 269 0.0 0.0 0.00 0.00 0.00 72 1011.1
20260901205714 90 193 0.0 1.0 0.00 0.00 0.00 73 1011.0
20260901205204 91 218 0.0 1.0 0.00 0.00 0.00 73 1011.1
20260901204659 89 126 0.0 1.0 0.00 0.00 0.00 70 1011.1
20260901204155 89 281 0.0 1.0 0.00 0.00 0.00 71 1011.3
20260901203655 89 145 0.0 0.0 0.00 0.00 0.00 72 1011.1
20260901203150 88 205 0.0 1.0 0.00 0.00 0.00 73 1011.2
20260901202649 87 339 0.0 0.0 0.00 0.00 0.00 78 1011.1
20260901202145 87 142 0.0 0.0 0.00 0.00 0.00 78 1011.4
20260901201641 87 201 0.0 1.0 0.00 0.00 0.00 76 1011.3
20260901201139 86 0 0.0 0.0 0.00 0.00 0.00 79 1011.5
20260901200634 87 117 0.0 1.0 0.00 0.00 0.00 78 1011.4
20260901200129 87 217 0.0 1.0 0.00 0.00 0.00 78 1011.4
20260901195626 88 240 1.0 1.0 0.00 0.00 0.00 74 1011.7
20260901195121 88 224 0.0 0.0 0.00 0.00 0.00 72 1011.7
20260901194616 88 232 0.0 0.0 0.00 0.00 0.00 72 1011.8
20260901194111 90 135 0.0 0.0 0.00 0.00 0.00 72 1011.7
20260901193607 89 205 0.0 2.0 0.00 0.00 0.00 69 1012.0
20260901193101 89 218 1.0 2.0 0.00 0.00 0.00 74 1011.9
20260901192556 89 238 0.0 2.0 0.00 0.00 0.00 68 1011.9
20260901192051 89 224 2.0 2.0 0.00 0.00 0.00 73 1011.9
20260901191547 89 164 0.0 1.0 0.00 0.00 0.00 71 1011.6
20260901191043 90 126 0.0 0.0 0.00 0.00 0.00 72 1011.7
20260901190539 90 44 0.0 1.0 0.00 0.00 0.00 72 1011.8
20260901190037 90 129 0.0 2.0 0.00 0.00 0.00 68 1011.9
20260901185531 89 196 0.0 1.0 0.00 0.00 0.00 69 1011.9
20260901185030 91 209 1.0 2.0 0.00 0.00 0.00 70 1012.0
20260901184525 92 238 0.0 3.0 0.00 0.00 0.00 62 1012.0
20260901184021 91 226 0.0 3.0 0.00 0.00 0.00 62 1012.0
20260901183515 92 230 1.0 3.0 0.00 0.00 0.00 64 1011.9
20260901183010 93 237 2.0 3.0 0.00 0.00 0.00 63 1012.0
20260901182506 92 209 2.0 2.0 0.00 0.00 0.00 62 1011.9
20260901182001 92 296 2.0 4.0 0.00 0.00 0.00 63 1012.0
20260901181501 93 309 4.0 4.0 0.00 0.00 0.00 62 1012.0
20260901181000 92 135 0.0 3.0 0.00 0.00 0.00 64 1012.2
20260901180458 91 345 0.0 3.0 0.00 0.00 0.00 62 1012.0
20260901175957 93 283 3.0 4.0 0.00 0.00 0.00 64 1012.0
20260901175452 92 283 2.0 3.0 0.00 0.00 0.00 63 1012.1
20260901174947 91 266 1.0 3.0 0.00 0.00 0.00 64 1012.2
20260901174443 92 288 1.0 3.0 0.00 0.00 0.00 65 1012.1
20260901173939 92 292 2.0 4.0 0.00 0.00 0.00 64 1012.1
20260901173434 89 245 2.0 2.0 0.00 0.00 0.00 64 1012.0
20260901172930 92 221 1.0 2.0 0.00 0.00 0.00 63 1012.1
20260901172425 89 279 1.0 2.0 0.00 0.00 0.00 65 1012.1
20260901171923 89 240 0.0 3.0 0.00 0.00 0.00 68 1012.0
20260901171422 90 219 0.0 3.0 0.00 0.00 0.00 66 1012.1
20260901170920 89 219 2.0 3.0 0.00 0.00 0.00 70 1012.3
20260901170415 90 89 0.0 2.0 0.00 0.00 0.00 67 1012.2
20260901165909 89 342 0.0 5.0 0.00 0.00 0.00 68 1012.4
20260901165403 90 238 2.0 4.0 0.00 0.00 0.00 67 1012.4
20260901164900 90 282 3.0 4.0 0.00 0.00 0.00 68 1012.6
20260901164356 90 322 0.0 3.0 0.00 0.00 0.00 67 1012.6
20260901163855 89 297 2.0 2.0 0.00 0.00 0.00 66 1012.7
20260901163350 89 338 1.0 5.0 0.00 0.00 0.00 68 1012.8
20260901162845 89 272 2.0 3.0 0.00 0.00 0.00 70 1012.8
20260901162343 88 241 2.0 3.0 0.00 0.00 0.00 75 1012.6
20260901161838 87 238 1.0 3.0 0.00 0.00 0.00 77 1013.1
20260901161332 87 256 2.0 2.0 0.00 0.00 0.00 76 1012.9
20260901160827 87 259 0.0 3.0 0.00 0.00 0.00 74 1013.0
20260901160324 87 301 1.0 3.0 0.00 0.00 0.00 73 1012.9
20260901155823 88 356 1.0 2.0 0.00 0.00 0.00 73 1013.2
20260901155318 88 275 2.0 3.0 0.00 0.00 0.00 75 1013.0
20260901154815 88 264 2.0 3.0 0.00 0.00 0.00 74 1013.1
20260901154313 88 359 1.0 3.0 0.00 0.00 0.00 72 1013.1
20260901153808 89 16 3.0 5.0 0.00 0.00 0.00 72 1013.3
20260901153308 88 287 3.0 5.0 0.00 0.00 0.00 75 1013.1
20260901152807 88 247 1.0 3.0 0.00 0.00 0.00 75 1013.2
20260901152306 87 301 3.0 3.0 0.00 0.00 0.00 75 1013.3
20260901151802 87 336 2.0 4.0 0.00 0.00 0.00 73 1013.0
20260901151256 85 221 2.0 3.0 0.00 0.00 0.00 74 1013.3
20260901150755 86 329 2.0 4.0 0.00 0.00 0.00 76 1013.3
20260901150254 86 245 2.0 3.0 0.00 0.00 0.00 75 1013.2
20260901145751 86 291 3.0 3.0 0.00 0.00 0.00 76 1013.2
20260901145246 86 240 0.0 3.0 0.00 0.00 0.00 77 1013.7
20260901144741 85 231 2.0 3.0 0.00 0.00 0.00 77 1013.8
20260901144237 86 301 1.0 2.0 0.00 0.00 0.00 78 1013.5
20260901143732 86 324 1.0 2.0 0.00 0.00 0.00 77 1013.5
20260901143228 86 267 0.0 3.0 0.00 0.00 0.00 78 1013.4
20260901142724 85 295 1.0 2.0 0.00 0.00 0.00 77 1013.4
20260901142223 84 323 0.0 2.0 0.00 0.00 0.00 76 1013.4
20260901141718 85 313 3.0 5.0 0.00 0.00 0.00 75 1013.6
20260901141213 84 273 0.0 4.0 0.00 0.00 0.00 76 1013.4
20260901140712 84 297 3.0 3.0 0.00 0.00 0.00 75 1013.3
20260901140210 84 306 3.0 3.0 0.00 0.00 0.00 76 1013.5
20260901135706 84 257 2.0 4.0 0.00 0.00 0.00 79 1013.5
20260901135200 82 258 1.0 2.0 0.00 0.00 0.00 80 1013.6
20260901134656 82 295 4.0 4.0 0.00 0.00 0.00 81 1013.4
20260901134151 82 266 2.0 2.0 0.00 0.00 0.00 84 1013.5
20260901133650 81 263 2.0 3.0 0.00 0.00 0.00 86 1013.6
20260901133149 81 214 2.0 3.0 0.00 0.00 0.00 87 1013.7
20260901132643 80 257 0.0 3.0 0.00 0.00 0.00 89 1013.7
20260901132143 80 220 0.0 3.0 0.00 0.00 0.00 90 1013.6
20260901131643 79 291 0.0 1.0 0.00 0.00 0.00 92 1013.6
20260901131138 78 256 0.0 2.0 0.00 0.00 0.00 93 1013.6
20260901130633 78 242 0.0 2.0 0.00 0.00 0.00 93 1013.7
20260901130132 78 269 0.0 2.0 0.00 0.00 0.00 92 1013.9
20260901125630 79 246 1.0 2.0 0.00 0.00 0.00 92 1013.9
20260901125125 78 273 2.0 3.0 0.00 0.00 0.00 92 1014.0
20260901124620 78 264 1.0 2.0 0.00 0.00 0.00 92 1013.6
20260901124114 78 292 0.0 2.0 0.00 0.00 0.00 93 1013.8
20260901123609 77 254 1.0 2.0 0.00 0.00 0.00 95 1014.1
20260901123108 77 229 1.0 3.0 0.00 0.00 0.00 94 1013.9
20260901122606 76 229 0.0 2.0 0.00 0.00 0.00 97 1013.7
20260901122101 75 245 0.0 2.0 0.00 0.00 0.00 97 1013.9
20260901121555 75 246 0.0 2.0 0.00 0.00 0.00 98 1013.8
20260901121050 75 278 0.0 2.0 0.00 0.00 0.00 98 1013.8
20260901120545 74 208 0.0 2.0 0.00 0.00 0.00 98 1013.9
20260901120041 74 235 0.0 2.0 0.00 0.00 0.00 99 1014.0
20260901115536 74 240 0.0 2.0 0.00 0.00 0.00 99 1013.8
20260901115033 74 226 0.0 2.0 0.00 0.00 0.00 99 1013.8
20260901114528 73 333 1.0 2.0 0.00 0.00 0.00 99 1013.6
20260901114027 73 251 0.0 2.0 0.00 0.00 0.00 99 1013.7
20260901113526 73 349 0.0 1.0 0.00 0.00 0.00 99 1013.5
20260901113021 73 304 0.0 3.0 0.00 0.00 0.00 99 1013.6
20260901112516 73 323 1.0 2.0 0.00 0.00 0.00 99 1013.5
20260901112011 72 320 0.0 2.0 0.00 0.00 0.00 99 1013.4
20260901111504 72 341 0.0 2.0 0.00 0.00 0.00 99 1013.4
20260901111003 72 278 1.0 2.0 0.00 0.00 0.00 99 1013.3
20260901110459 72 297 2.0 2.0 0.00 0.00 0.00 99 1013.3
20260901105954 72 243 0.0 2.0 0.00 0.00 0.00 99 1013.1
20260901105450 72 240 0.0 2.0 0.00 0.00 0.00 99 1013.4
20260901104950 72 275 1.0 1.0 0.00 0.00 0.00 99 1013.2
20260901104446 72 278 0.0 1.0 0.00 0.00 0.00 99 1013.0
20260901103940 72 296 0.0 1.0 0.00 0.00 0.00 99 1013.1
20260901103435 72 269 0.0 1.0 0.00 0.00 0.00 99 1012.9
20260901102930 72 269 0.0 2.0 0.00 0.00 0.00 99 1013.1
20260901102425 72 245 0.0 1.0 0.00 0.00 0.00 99 1013.3
20260901101919 72 332 0.0 2.0 0.00 0.00 0.00 99 1013.4
20260901101415 72 233 1.0 1.0 0.00 0.00 0.00 99 1013.3
20260901100914 72 273 1.0 2.0 0.00 0.00 0.00 99 1013.3
20260901100408 72 246 1.0 2.0 0.00 0.00 0.00 99 1013.5
20260901095902 72 306 0.0 2.0 0.00 0.00 0.00 99 1013.2
20260901095401 72 262 1.0 2.0 0.00 0.00 0.00 99 1013.6
20260901094854 72 278 0.0 1.0 0.00 0.00 0.00 99 1013.2
20260901094349 72 320 0.0 2.0 0.00 0.00 0.00 99 1013.2
20260901093844 72 223 0.0 2.0 0.00 0.00 0.00 98 1013.4
20260901093343 72 237 0.0 2.0 0.00 0.00 0.00 98 1013.4
20260901092839 72 293 0.0 2.0 0.00 0.00 0.00 98 1013.1
20260901092334 72 297 0.0 2.0 0.00 0.00 0.00 98 1013.2
20260901091830 72 324 0.0 1.0 0.00 0.00 0.00 98 1013.2
20260901091324 72 180 0.0 1.0 0.00 0.00 0.00 98 1013.1
20260901090819 72 322 0.0 1.0 0.00 0.00 0.00 98 1013.2
20260901090314 73 352 0.0 1.0 0.00 0.00 0.00 98 1013.1
20260901085810 73 259 0.0 1.0 0.00 0.00 0.00 98 1013.1
20260901085306 73 267 1.0 2.0 0.00 0.00 0.00 98 1013.4
20260901084802 73 333 0.0 1.0 0.00 0.00 0.00 98 1013.3
20260901084258 73 307 0.0 1.0 0.00 0.00 0.00 98 1013.3
20260901083757 73 296 0.0 1.0 0.00 0.00 0.00 98 1013.0
20260901083257 73 221 0.0 2.0 0.00 0.00 0.00 98 1013.2
20260901082755 73 346 0.0 3.0 0.00 0.00 0.00 98 1013.3
20260901082251 73 247 0.0 1.0 0.00 0.00 0.00 98 1013.3
20260901081746 73 281 1.0 1.0 0.00 0.00 0.00 98 1013.2
20260901081246 73 315 0.0 2.0 0.00 0.00 0.00 98 1013.1
20260901080741 73 245 0.0 1.0 0.00 0.00 0.00 98 1013.4
20260901080240 73 299 0.0 2.0 0.00 0.00 0.00 98 1013.3
20260901075734 74 331 0.0 3.0 0.00 0.00 0.00 98 1013.4
20260901075230 73 293 0.0 2.0 0.00 0.00 0.00 98 1013.4
20260901074724 73 310 0.0 1.0 0.00 0.00 0.00 98 1013.2
20260901074219 74 197 0.0 2.0 0.00 0.00 0.00 98 1013.5
20260901073716 74 289 0.0 2.0 0.00 0.00 0.00 98 1013.5
20260901073211 74 261 2.0 3.0 0.00 0.00 0.00 98 1013.4
20260901072706 74 241 1.0 2.0 0.00 0.00 0.00 98 1013.6
20260901072201 74 226 0.0 2.0 0.00 0.00 0.00 98 1013.6
20260901071700 74 212 1.0 1.0 0.00 0.00 0.00 98 1013.5
20260901071155 74 180 0.0 1.0 0.00 0.00 0.00 98 1013.6
20260901070649 74 253 1.0 2.0 0.00 0.00 0.00 98 1013.6
20260901070145 74 346 1.0 1.0 0.00 0.00 0.00 98 1013.5
20260901065643 74 232 1.0 2.0 0.00 0.00 0.00 98 1013.5
20260901065138 74 260 1.0 2.0 0.00 0.00 0.00 98 1013.7
20260901064635 74 222 0.0 2.0 0.00 0.00 0.00 98 1013.9
20260901064132 74 246 1.0 2.0 0.00 0.00 0.00 98 1013.7
20260901063629 74 254 1.0 1.0 0.00 0.00 0.00 98 1013.5
20260901063124 74 283 0.0 2.0 0.00 0.00 0.00 98 1013.9
20260901062619 75 263 0.0 2.0 0.00 0.00 0.00 98 1013.7
20260901062115 75 283 3.0 3.0 0.00 0.00 0.00 98 1013.7
20260901061611 74 279 0.0 2.0 0.00 0.00 0.00 98 1013.6
20260901061105 75 266 0.0 2.0 0.00 0.00 0.00 98 1013.8
20260901060600 75 310 0.0 2.0 0.00 0.00 0.00 98 1014.0
20260901060056 75 291 0.0 3.0 0.00 0.00 0.00 98 1013.9
20260901055551 75 242 1.0 2.0 0.00 0.00 0.00 98 1014.3
20260901055048 75 269 0.0 2.0 0.00 0.00 0.00 98 1013.9
20260901054544 75 271 0.0 1.0 0.00 0.00 0.00 98 1014.0
20260901054040 75 204 1.0 2.0 0.00 0.00 0.00 98 1014.2
20260901053536 75 204 0.0 3.0 0.00 0.00 0.00 98 1014.1
20260901053032 75 255 1.0 2.0 0.00 0.00 0.00 98 1014.3
20260901052532 75 256 0.0 2.0 0.00 0.00 0.00 98 1014.4
20260901052032 75 255 0.0 2.0 0.00 0.00 0.00 98 1014.4
20260901051526 75 230 1.0 2.0 0.00 0.00 0.00 98 1014.3
20260901051025 75 236 0.0 2.0 0.00 0.00 0.00 98 1014.5
20260901050521 75 271 0.0 2.0 0.00 0.00 0.00 98 1014.5
20260901050017 75 211 0.0 2.0 0.00 0.00 0.00 98 1014.4
20260901045512 75 263 0.0 2.0 0.00 0.00 0.00 98 1014.5
20260901045012 75 285 0.0 2.0 0.00 0.00 0.00 98 1014.3
20260901044508 75 260 0.0 3.0 0.00 0.00 0.00 98 1014.4
20260901044004 75 310 0.0 2.0 0.00 0.00 0.00 97 1014.6
20260901043459 75 5 0.0 2.0 0.00 0.00 0.00 97 1014.7
20260901042954 75 207 0.0 2.0 0.00 0.00 0.00 97 1014.3
20260901042453 76 240 0.0 2.0 0.00 0.00 0.00 97 1014.6
20260901041949 76 301 1.0 3.0 0.00 0.00 0.00 98 1014.4
20260901041444 76 241 0.0 1.0 0.00 0.00 0.00 97 1014.5
20260901040943 75 320 0.0 2.0 0.00 0.00 0.00 97 1014.5
20260901040438 76 300 0.0 1.0 0.00 0.00 0.00 97 1014.6
20260901035932 76 218 0.0 3.0 0.00 0.00 0.00 97 1014.6
20260901035431 76 250 1.0 2.0 0.00 0.00 0.00 97 1014.5
20260901034929 76 250 1.0 3.0 0.00 0.00 0.00 97 1014.5
20260901034424 76 279 2.0 3.0 0.00 0.00 0.00 97 1014.5
20260901033919 76 283 0.0 2.0 0.00 0.00 0.00 97 1014.6
20260901033418 76 275 0.0 2.0 0.00 0.00 0.00 97 1014.5
20260901032917 76 193 0.0 2.0 0.00 0.00 0.00 97 1014.4
20260901032416 76 310 0.0 2.0 0.00 0.00 0.00 97 1014.4
20260901031912 76 241 0.0 2.0 0.00 0.00 0.00 97 1014.3
20260901031407 76 228 0.0 3.0 0.00 0.00 0.00 97 1014.4
20260901030907 76 249 1.0 2.0 0.00 0.00 0.00 97 1014.3
20260901030402 76 273 0.0 2.0 0.00 0.00 0.00 97 1014.5
20260901025901 76 277 0.0 2.0 0.00 0.00 0.00 97 1014.3
20260901025356 76 313 0.0 2.0 0.00 0.00 0.00 97 1014.2
20260901024850 76 266 2.0 3.0 0.00 0.00 0.00 97 1014.4
20260901024350 76 311 0.0 2.0 0.00 0.00 0.00 96 1014.4
20260901023848 76 301 0.0 2.0 0.00 0.00 0.00 97 1014.4
20260901023343 76 266 2.0 3.0 0.00 0.00 0.00 97 1014.1
20260901022838 76 224 0.0 3.0 0.00 0.00 0.00 97 1014.3
20260901022334 76 275 0.0 2.0 0.00 0.00 0.00 97 1014.3
20260901021824 76 257 2.0 3.0 0.00 0.00 0.00 97 1014.4
20260901021320 76 323 0.0 3.0 0.00 0.00 0.00 97 1014.5
20260901020814 76 189 0.0 2.0 0.00 0.00 0.00 97 1014.5
20260901020309 76 190 0.0 1.0 0.00 0.00 0.00 97 1014.6
20260901015804 76 246 0.0 1.0 0.00 0.00 0.00 97 1014.5
20260901015300 76 251 0.0 2.0 0.00 0.00 0.00 96 1014.7
20260901014759 76 285 0.0 2.0 0.00 0.00 0.00 96 1014.7
20260901014255 76 89 0.0 1.0 0.00 0.00 0.00 96 1014.7